Weather History for Philip, SD

Change the Weather History Date:

Thursday, September 19, 2013

  Actual Average Record
Temperature  
Mean Temperature 55 °F 61 °F  
Max Temperature 67 °F 76 °F 101 °F (1984)
Min Temperature 43 °F 45 °F 20 °F (1991)
Degree Days  
Heating Degree Days 10 6  
Month to date heating degree days 16 72  
Since 1 July heating degree days 19 97  
Cooling Degree Days 0 2  
Month to date cooling degree days 159 67  
Year to date cooling degree days 922 802  
Growing Degree Days 7 (Base 50)    
Moisture  
Dew Point 41 °F    
Average Humidity 53    
Maximum Humidity 71    
Minimum Humidity 34    
Precipitation  
Precipitation 0.00 in 0.04 in 1.14 in (1986)
Month to date precipitation 0.42 0.95  
Year to date precipitation 10.83 14.33  
Sea Level Pressure  
Sea Level Pressure 29.97 in    
Wind  
Wind Speed 16 mph (NW)    
Max Wind Speed 31 mph    
Max Gust Speed 39 mph    
Visibility 10 miles    
Events      
T = Trace of Precipitation, MM = Missing Value Source: NWS Daily Summary

Daily Weather History Graph

Daily Weather History Graph

Search for Another Location

Airport:

Trip Planner

Search our weather history database for the weather conditions in past years. The results will help you decide how hot, cold, wet, or windy it might be!

Date:

Astronomy

Sep. 19, 2013 Rise Set
Actual Time 6:30 AM MDT 6:48 PM MDT
Civil Twilight 6:01 AM MDT 7:17 PM MDT
Nautical Twilight 5:27 AM MDT 7:51 PM MDT
Astronomical Twilight 4:52 AM MDT 8:26 PM MDT
Moon 6:45 PM MDT (9/19) 6:43 AM MDT (9/19)
Length of Visible Light 13h 16m
Length of Day
12h 18m
Full, 100% of the Moon is Illuminated
Sep 19
Full
Sep 26
Last Quarter
Oct 4
New
Oct 11
First Quarter
Oct 18
Full

Hourly Weather History & Observations

Time (MDT) Temp. Windchill Dew Point Humidity Pressure Visibility Wind Dir Wind Speed Gust Speed Precip Events Conditions
12:55 AM 62.1 °F - 48.0 °F 60% 29.75 in 10.0 mi NNW 11.5 mph - N/A   Clear
1:55 AM 61.0 °F - 45.0 °F 56% 29.78 in 10.0 mi NNW 13.8 mph 19.6 mph N/A   Clear
2:55 AM 60.1 °F - 46.0 °F 60% 29.81 in 10.0 mi WNW 11.5 mph - N/A   Clear
3:55 AM 57.0 °F - 46.9 °F 69% 29.85 in 10.0 mi WNW 9.2 mph - N/A   Clear
4:55 AM 57.9 °F - 46.0 °F 65% 29.86 in 10.0 mi NW 9.2 mph 19.6 mph N/A   Mostly Cloudy
5:55 AM 57.0 °F - 44.1 °F 62% 29.87 in 10.0 mi NW 16.1 mph 20.7 mph N/A   Clear
6:55 AM 55.9 °F - 44.1 °F 64% 29.91 in 10.0 mi NW 9.2 mph - N/A   Partly Cloudy
7:55 AM 57.0 °F - 44.1 °F 62% 29.93 in 10.0 mi WNW 15.0 mph 19.6 mph N/A   Clear
8:55 AM 62.1 °F - 41.0 °F 46% 29.95 in 10.0 mi NW 24.2 mph 33.4 mph N/A   Clear
9:55 AM 66.0 °F - 37.0 °F 34% 29.96 in 10.0 mi NW 28.8 mph 39.1 mph N/A   Clear
10:55 AM 62.1 °F - 39.9 °F 44% 29.99 in 10.0 mi WNW 24.2 mph 32.2 mph N/A   Clear
11:55 AM 61.0 °F - 41.0 °F 48% 30.00 in 10.0 mi WNW 23.0 mph 34.5 mph N/A   Clear
12:55 PM 62.1 °F - 41.0 °F 46% 30.01 in 10.0 mi NW 21.9 mph 32.2 mph N/A   Clear
1:55 PM 66.0 °F - 39.9 °F 38% 30.01 in 10.0 mi NW 23.0 mph 34.5 mph N/A   Partly Cloudy
2:55 PM 66.0 °F - 39.0 °F 37% 30.02 in 10.0 mi NW 23.0 mph 33.4 mph N/A   Partly Cloudy
3:55 PM 64.9 °F - 39.0 °F 39% 30.02 in 10.0 mi NW 26.5 mph 34.5 mph N/A   Clear
4:55 PM 64.0 °F - 37.0 °F 37% 30.02 in 10.0 mi NNW 26.5 mph 34.5 mph N/A   Clear
5:55 PM 60.1 °F - 37.0 °F 42% 30.02 in 10.0 mi NNW 23.0 mph 29.9 mph N/A   Clear
6:55 PM 55.9 °F - 37.9 °F 51% 30.05 in 10.0 mi NNW 12.7 mph 20.7 mph N/A   Scattered Clouds
7:55 PM 53.1 °F - 37.9 °F 57% 30.08 in 10.0 mi NNW 13.8 mph - N/A   Clear
8:55 PM 51.1 °F - 37.9 °F 61% 30.10 in 10.0 mi NW 9.2 mph - N/A   Partly Cloudy
9:55 PM 48.9 °F - 37.9 °F 66% 30.11 in 10.0 mi WNW 9.2 mph - N/A   Clear
10:55 PM 48.9 °F - 39.0 °F 69% 30.12 in 10.0 mi West 3.5 mph - N/A   Overcast
11:55 PM 46.0 °F 42.5 °F 37.9 °F 73% 30.12 in 10.0 mi West 6.9 mph - N/A   Scattered Clouds